Weather History for Springfield, MO

Change the Weather History Date:

Friday, January 11, 2013

  Actual Average Record
Temperature  
Mean Temperature 56 °F 32 °F  
Max Temperature 66 °F 42 °F 73 °F (1911)
Min Temperature 45 °F 22 °F -18 °F (1918)
Degree Days  
Heating Degree Days 9 33  
Month to date heating degree days 303 360  
Since 1 July heating degree days 1950 2170  
Cooling Degree Days 0 0  
Month to date cooling degree days 0 0  
Year to date cooling degree days 0 0  
Growing Degree Days 6 (Base 50)    
Moisture  
Dew Point 44 °F    
Average Humidity 69    
Maximum Humidity 93    
Minimum Humidity 44    
Precipitation  
Precipitation 0.00 in 0.07 in 1.89 in (1916)
Month to date precipitation 0.81 0.94  
Year to date precipitation 0.81 0.94  
Snow  
Snow 0.00 in - - ()
Month to date snowfall T  
Since 1 July snowfall 1.3  
Snow Depth 0.00 in    
Sea Level Pressure  
Sea Level Pressure 29.79 in    
Wind  
Wind Speed 16 mph (South)    
Max Wind Speed 26 mph    
Max Gust Speed 33 mph    
Visibility 10 miles    
Events      
T = Trace of Precipitation, MM = Missing Value Source: NWS Daily Summary

Daily Weather History Graph

Daily Weather History Graph

Search for Another Location

Airport:

Trip Planner

Search our weather history database for the weather conditions in past years. The results will help you decide how hot, cold, wet, or windy it might be!

Date:

Astronomy

Jan. 11, 2013 Rise Set
Actual Time 7:27 AM CST 5:16 PM CST
Civil Twilight 6:58 AM CST 5:44 PM CST
Nautical Twilight 6:26 AM CST 6:17 PM CST
Astronomical Twilight 5:55 AM CST 6:48 PM CST
Moon 7:01 AM CST (1/11) 5:33 PM CST (1/11)
Length of Visible Light 10h 46m
Length of Day
9h 48m
Waning Crescent, 0% of the Moon is Illuminated
Jan 11
Waning Crescent
Jan 11
New
Jan 18
First Quarter
Jan 26
Full
Feb 3
Last Quarter

Hourly Weather History & Observations

Time (CST) Temp. Windchill Dew Point Humidity Pressure Visibility Wind Dir Wind Speed Gust Speed Precip Events Conditions
12:33 AM 50.0 °F - 46.9 °F 89% 29.83 in 10.0 mi SSW 12.7 mph - N/A   Overcast
12:52 AM 50.0 °F - 46.9 °F 89% 29.83 in 10.0 mi SSW 13.8 mph - N/A   Overcast
1:04 AM 50.0 °F - 46.0 °F 86% 29.83 in 10.0 mi SSW 17.3 mph - N/A   Overcast
1:52 AM 50.0 °F - 46.0 °F 86% 29.83 in 10.0 mi SSW 13.8 mph - N/A   Overcast
2:52 AM 48.9 °F - 46.0 °F 90% 29.85 in 10.0 mi SSW 11.5 mph - N/A   Overcast
3:52 AM 48.9 °F - 46.0 °F 90% 29.85 in 10.0 mi SSW 15.0 mph - N/A   Overcast
4:52 AM 48.0 °F - 45.0 °F 89% 29.82 in 10.0 mi South 8.1 mph - N/A   Mostly Cloudy
5:52 AM 46.9 °F - 44.1 °F 90% 29.83 in 10.0 mi South 10.4 mph - N/A   Scattered Clouds
6:52 AM 45.0 °F 39.7 °F 43.0 °F 93% 29.83 in 10.0 mi SSE 10.4 mph - N/A   Clear
7:52 AM 46.9 °F - 44.1 °F 90% 29.82 in 10.0 mi SSE 13.8 mph - N/A   Clear
8:52 AM 48.0 °F - 44.1 °F 86% 29.83 in 10.0 mi South 17.3 mph - N/A   Clear
9:52 AM 52.0 °F - 46.0 °F 80% 29.81 in 10.0 mi South 17.3 mph - N/A   Clear
10:52 AM 55.0 °F - 46.0 °F 72% 29.81 in 10.0 mi South 20.7 mph 29.9 mph N/A   Clear
11:52 AM 60.1 °F - 46.0 °F 60% 29.77 in 10.0 mi South 20.7 mph 31.1 mph N/A   Clear
12:52 PM 64.0 °F - 45.0 °F 50% 29.74 in 10.0 mi South 24.2 mph 29.9 mph N/A   Clear
1:52 PM 63.0 °F - 43.0 °F 48% 29.74 in 10.0 mi SSW 25.3 mph 33.4 mph N/A   Clear
2:52 PM 64.9 °F - 43.0 °F 45% 29.73 in 10.0 mi South 23.0 mph 28.8 mph N/A   Clear
3:52 PM 64.0 °F - 42.1 °F 45% 29.71 in 10.0 mi South 19.6 mph - N/A   Clear
4:52 PM 63.0 °F - 42.1 °F 46% 29.72 in 10.0 mi South 12.7 mph - N/A   Clear
5:52 PM 62.1 °F - 41.0 °F 46% 29.73 in 10.0 mi South 17.3 mph - N/A   Clear
6:52 PM 61.0 °F - 42.1 °F 50% 29.74 in 10.0 mi South 19.6 mph 27.6 mph N/A   Clear
7:52 PM 57.9 °F - 43.0 °F 58% 29.75 in 10.0 mi South 16.1 mph - N/A   Clear
8:52 PM 57.0 °F - 43.0 °F 59% 29.78 in 10.0 mi South 15.0 mph - N/A   Clear
9:52 PM 55.9 °F - 44.1 °F 64% 29.79 in 10.0 mi South 15.0 mph - N/A   Clear
10:52 PM 55.0 °F - 44.1 °F 67% 29.80 in 10.0 mi South 15.0 mph - N/A   Clear
11:52 PM 55.0 °F - 44.1 °F 67% 29.79 in 10.0 mi South 15.0 mph - N/A   Clear